BEIDOU-3S IGSO-1S

Last updated on Sun Oct 06 2024 00:02:40 GMT+0000 (Coordinated Universal Time)

1 40549U 15019A 24279.46695986 -.00000160 00000+0 00000+0 0 9991 2 40549 50.3686 302.8858 0036281 198.0564 138.5503 1.00281431 34854
UTC large
Height (km)
Speed (km/s)
/
Latitude / Longitude
Inclination (degrees)
Orbital Period (minutes)
Azimuth
Elevation
Range (km)
Doppler Factor

Next 0 passes for location: London (51.5072 / 0.1276)

Sorry there are no passes over London.